Flag for France Weather past 2 weeks in Dijon, France

Now
37 °F

Overcast.


Feels Like: 32 °F
Forecast: 33 / 42 °F
Wind: 7 mph from Northwest

Location: Dijon Airport

Current Time: Jan 27, 2015 at 10:30:23 AM

Latest Report: Jan 27, 2015 at 10:00 AM


Visibility: N/A

Pressure: 30.30 "Hg

Humidity: 87%

Dew point: 34 °F

Location of DijonLocation

Historic Weather in Dijon — Graph

°F

Dijon temperature yesterday

Maximum temperature yesterday: 37 °F (at 5:30 PM)
Minimum temperature yesterday: 32 °F (at 2:30 AM)
Average temperature yesterday: 34 °F

Past Weeks' High & Low Weather Summary

 TemperatureHumidityPressure
High55 °F (Jan 13, 2:30 PM)100% (Jan 16, 4:00 PM)30.48 "Hg (Jan 16, 4:00 PM)
Low23 °F (Jan 18, 3:00 AM)59% (Jan 13, 2:30 PM)29.68 "Hg (Jan 16, 7:00 AM)
Average37 °F87%30.04 "Hg
* Reported Jan 12 9:00 AM — Jan 27 9:30 AM, Dijon, Weather by CustomWeather, © 2014

Note: Actual official high and low records may vary slightly from our data, if they occured in-between our weather recording intervals... More about our weather records

Advertising

Dijon weather history for previous 24 hours

 ConditionsComfort  
Time TempWeatherWind HumidityBarometerVisibility
9:30 AM
Jan 27
37 °FOvercast.8 mph87%30.30 "HgN/A
9:00 AM37 °FOvercast.8 mph87%30.30 "HgN/A
8:30 AM36 °FOvercast.8 mph87%30.30 "HgN/A
8:00 AM36 °FPassing clouds.8 mph87%30.30 "HgN/A
7:30 AM34 °FPassing clouds.6 mph93%30.27 "HgN/A
7:00 AM34 °FPassing clouds.7 mph93%30.27 "HgN/A
6:30 AM36 °FClear.6 mph93%30.27 "HgN/A
6:00 AM36 °FPassing clouds.7 mph93%30.27 "HgN/A
5:30 AM37 °FPassing clouds.9 mph87%30.24 "HgN/A
5:00 AM37 °FMostly cloudy.8 mph93%30.24 "HgN/A
4:30 AM39 °FMostly cloudy.8 mph87%30.24 "HgN/A
3:30 AM36 °FFog.6 mph100%30.24 "Hg2 mi
3:00 AM36 °FFog.2 mph100%30.21 "Hg0 mi
2:30 AM36 °FFog.3 mph100%30.24 "Hg0 mi
2:00 AM36 °FFog.2 mph100%30.24 "Hg1 mi
1:30 AM37 °FFog.3 mph93%30.21 "Hg1 mi
1:00 AM37 °FDrizzle. Fog.2 mph100%30.24 "Hg1 mi
12:30 AM37 °FDrizzle. Fog.1 mph100%30.21 "Hg1 mi
12:00 AM37 °FFog.6 mph100%30.21 "Hg2 mi
11:30 PM
Jan 26
37 °FFog.7 mph100%30.21 "Hg2 mi
11:00 PM37 °FFog.6 mph100%30.21 "Hg2 mi
10:30 PM37 °FLight rain. Fog.6 mph100%30.21 "Hg1 mi
10:00 PM37 °FFog.7 mph100%30.21 "Hg2 mi
9:30 PM37 °FFog.8 mph100%30.21 "Hg1 mi
9:00 PM37 °FLight rain. Fog.9 mph93%30.21 "Hg1 mi
8:30 PM37 °FDrizzle. Fog.9 mph93%30.21 "Hg1 mi
8:00 PM37 °FLight rain. Fog.9 mph93%30.21 "Hg2 mi
7:30 PM37 °FFog.9 mph93%30.21 "Hg3 mi
7:00 PM37 °FLow clouds.10 mph93%30.21 "Hg4 mi
6:30 PM37 °FLow clouds.10 mph93%30.21 "Hg4 mi
6:00 PM37 °FLight rain. Fog.10 mph93%30.21 "Hg3 mi
5:30 PM37 °FLight rain. Low clouds.10 mph93%30.24 "Hg4 mi
5:00 PM36 °FLow clouds.9 mph100%30.24 "Hg4 mi
4:30 PM36 °FLow clouds.9 mph100%30.24 "Hg5 mi
4:00 PM36 °FLight rain. Fog.10 mph100%30.24 "Hg3 mi
3:30 PM36 °FLight rain. Low clouds.10 mph100%30.24 "Hg4 mi
3:00 PM36 °FLight rain. Low clouds.12 mph100%30.24 "Hg5 mi
2:30 PM36 °FDrizzle. Fog.10 mph93%30.27 "Hg3 mi
2:00 PM34 °FLight rain. Fog.10 mph100%30.27 "Hg3 mi
1:30 PM34 °FLight rain. Fog.10 mph100%30.30 "Hg3 mi
1:00 PM34 °FLight rain. Fog.10 mph100%30.30 "Hg3 mi
12:30 PM34 °FLight rain. Fog.10 mph93%30.33 "Hg2 mi
12:00 PM34 °FLight rain. Fog.12 mph93%30.33 "Hg2 mi
11:30 AM34 °FLight rain. Fog.12 mph93%30.33 "Hg2 mi
11:00 AM34 °FLight rain. Fog.7 mph93%30.36 "Hg1 mi
10:30 AM32 °FLight rain. Ice fog.6 mph100%30.36 "Hg1 mi
10:00 AM32 °FLight snow. Ice fog.6 mph100%30.36 "Hg1 mi
Weather by CustomWeather, © 2014

See weather overviewHow to use our weather pages